Home > Weather > Orléans > Past weeks

Flag for France Past Weather in Orléans, Centre-Val de Loire, France — Yesterday and Last 2 Weeks

Now
72 °F

Sunny.


Feels Like: 75 °F
Forecast: 58 / 75 °F
Wind: 6 mph from North

Location: Orleans Airport

Current Time: Jul 25, 2016 at 10:13:41 PM

Latest Report: Jul 25, 2016 at 9:30 PM


Visibility: 10 mi

Pressure: 30.15 "Hg

Humidity: 69%

Dew Point: 61 °F

Location of OrléansLocation

Past Weather in Orléans — Graph

°F

Orléans Temperature Yesterday

Maximum temperature yesterday: 84 °F (at 4:30 PM)
Minimum temperature yesterday: 57 °F (at 4:30 AM)
Average temperature yesterday: 71 °F

High & Low Weather Summary for the Past Weeks

 TemperatureHumidityPressure
High97 °F (Jul 19, 3:30 PM)100% (Jul 15, 6:00 AM)30.39 "Hg (Jul 15, 6:00 AM)
Low45 °F (Jul 15, 6:30 AM)25% (Jul 19, 4:30 PM)29.86 "Hg (Jul 10, 8:00 PM)
Average69 °F64%30.11 "Hg
* Reported Jul 10 8:00 PM — Jul 25 8:30 PM, Orléans, Weather by CustomWeather, © 2016

Note: Actual official high and low records may vary slightly from our data, if they occured in-between our weather recording intervals... More about our weather records

Advertising

Orléans Weather History for the Previous 24 Hours

Scroll right to see more
 ConditionsComfort  
Time TempWeatherWind HumidityBarometerVisibility
8:30 PM
Mon, Jul 25
75 °FMild.12 mph65%30.12 "HgN/A
8:00 PM77 °FWarm.13 mph61%30.12 "HgN/A
7:30 PM77 °FSunny.14 mph65%30.12 "Hg10 mi
7:00 PM77 °FWarm.14 mph65%30.12 "HgN/A
6:30 PM79 °FWarm.17 mph58%30.09 "HgN/A
6:00 PM82 °FSunny.8 mph42%30.09 "Hg10 mi
5:30 PM82 °FPassing clouds.6 mph40%30.09 "HgN/A
5:00 PM82 °FPassing clouds.7 mph42%30.09 "HgN/A
4:30 PM82 °FSunny.No wind42%30.12 "Hg10 mi
4:00 PM81 °FSunny.No wind48%30.12 "Hg10 mi
3:30 PM81 °FPassing clouds.3 mph45%30.12 "HgN/A
3:00 PM82 °FSunny.2 mph45%30.12 "Hg10 mi
2:30 PM82 °FSunny.3 mph45%30.12 "Hg10 mi
2:00 PM81 °FOvercast.3 mph48%30.12 "HgN/A
1:30 PM81 °FPassing clouds.5 mph51%30.12 "HgN/A
1:00 PM81 °FPassing clouds.3 mph48%30.12 "HgN/A
12:30 PM81 °FPassing clouds.3 mph51%30.12 "HgN/A
12:00 PM79 °FSunny.3 mph54%30.15 "Hg10 mi
11:30 AM77 °FSunny.2 mph61%30.12 "Hg10 mi
11:00 AM75 °FPassing clouds.5 mph61%30.12 "HgN/A
10:30 AM73 °FPassing clouds.5 mph69%30.15 "HgN/A
10:00 AM72 °FSunny.7 mph73%30.15 "Hg10 mi
9:30 AM72 °FSunny.7 mph69%30.15 "Hg10 mi
9:00 AM70 °FSunny.7 mph73%30.15 "Hg10 mi
8:30 AM70 °FSunny.3 mph73%30.12 "Hg10 mi
8:00 AM68 °FSunny.3 mph78%30.12 "Hg10 mi
7:30 AM66 °FSunny.2 mph83%30.12 "Hg10 mi
7:00 AM66 °FClear.1 mph83%30.12 "Hg10 mi
6:30 AM66 °FClear.2 mph83%30.12 "Hg10 mi
6:00 AM66 °FClear.No wind78%30.12 "Hg10 mi
5:30 AM66 °FClear.3 mph78%30.12 "Hg10 mi
5:00 AM66 °FClear.2 mph78%30.12 "Hg10 mi
4:30 AM66 °FClear.No wind78%30.12 "Hg10 mi
4:00 AM64 °FClear.2 mph83%30.12 "Hg10 mi
3:30 AM64 °FClear.1 mph78%30.12 "Hg10 mi
3:00 AM64 °FClear.No wind78%30.12 "Hg10 mi
2:30 AM63 °FClear.No wind83%30.12 "Hg10 mi
2:00 AM63 °FClear.1 mph83%30.12 "Hg10 mi
1:30 AM63 °FClear.2 mph77%30.12 "Hg10 mi
1:00 AM64 °FClear.2 mph78%30.12 "Hg10 mi
12:30 AM66 °FClear.No wind73%30.15 "Hg10 mi
12:00 AM66 °FClear.No wind73%30.15 "Hg10 mi
11:30 PM
Sun, Jul 24
68 °FClear.2 mph69%30.15 "Hg10 mi
11:00 PM68 °FClear.2 mph69%30.12 "Hg10 mi
10:30 PM70 °FSunny.5 mph64%30.12 "Hg10 mi
10:00 PM72 °FSunny.5 mph61%30.12 "Hg10 mi
Weather by CustomWeather, © 2016

See weather overviewHow to use our weather pages